Modesto, CA

11:54 PM PDT on May 24, 2017 (GMT -0700)
Modesto City-County-Sham

Weather History for KMOD - October, 2014

Change the Weather History Date:

Wednesday, October 29, 2014

  Actual Average Record
Temperature  
Mean Temperature 63 °F -  
Max Temperature 80 °F 73 °F 86 °F (1993)
Min Temperature 46 °F 49 °F 30 °F (1946)
Degree Days  
Heating Degree Days 2 4  
Month to date heating degree days 24 50  
Since 1 July heating degree days 25 53  
Cooling Degree Days 0 1  
Month to date cooling degree days 127 84  
Year to date cooling degree days 1855 1696  
Growing Degree Days 12 (Base 50)    
Moisture  
Dew Point 46 °F    
Average Humidity 58    
Maximum Humidity 86    
Minimum Humidity 30    
Precipitation  
Precipitation 0.00 in 0.04 in 0.82 in (1996)
Month to date precipitation 0.03 0.61  
Year to date precipitation 5.84 9.64  
Since 1 July precipitation 0.33  
Snow  
Snow 0.00 in - 0.00 in (2002)
Month to date snowfall 0.0  
Since 1 July snowfall 0.0  
Since 1 September snowfall 0.0  
Snow Depth 0.00 in    
Sea Level Pressure  
Sea Level Pressure 30.06 in    
Wind  
Wind Speed 1 mph (ESE)    
Max Wind Speed 8 mph    
Max Gust Speed 8 mph    
Visibility 10 miles    
Events      
T = Trace of Precipitation, MM = Missing Value Source: NWS Daily Summary

Daily Weather History Graph

Daily Weather History Graph

Search for Another Location

Airport or City:

Trip Planner

Search our weather history database for the weather conditions in past years. The results will help you decide how hot, cold, wet, or windy it might be!

Date:

Astronomy

Oct. 29, 2014 Rise Set
Actual Time 7:25 AM PDT 6:08 PM PDT
Civil Twilight 6:58 AM PDT 6:35 PM PDT
Nautical Twilight 6:28 AM PDT 7:06 PM PDT
Astronomical Twilight 5:57 AM PDT 7:36 PM PDT
Moon 12:47 PM PDT (10/29) 11:25 PM PDT (10/29)
Length of Visible Light 11h 36m
Length of Day
10h 42m
Waxing Crescent, 35% of the Moon is Illuminated
Oct 29
Waxing Crescent
Oct 30
First Quarter
Nov 6
Full
Nov 14
Last Quarter
Nov 22
New

Hourly Weather History & Observations

Time (PDT) Temp. Dew Point Humidity Pressure Visibility Wind Dir Wind Speed Gust Speed Precip Events Conditions
12:53 AM 52.0 °F 45.0 °F 77% 30.10 in 10.0 mi Calm Calm - N/A   Clear
1:53 AM 51.1 °F 44.1 °F 77% 30.10 in 10.0 mi Calm Calm - N/A   Clear
2:53 AM 54.0 °F 43.0 °F 66% 30.09 in 10.0 mi Calm Calm - N/A   Clear
3:53 AM 48.0 °F 43.0 °F 83% 30.10 in 10.0 mi ESE 3.5 mph - N/A   Clear
4:53 AM 48.0 °F 44.1 °F 86% 30.09 in 10.0 mi Calm Calm - N/A   Clear
5:53 AM 48.0 °F 44.1 °F 86% 30.09 in 10.0 mi Calm Calm - N/A   Clear
6:53 AM 46.0 °F 43.0 °F 89% 30.09 in 10.0 mi Calm Calm - N/A   Clear
7:53 AM 48.9 °F 44.1 °F 83% 30.11 in 10.0 mi Calm Calm - N/A   Clear
8:53 AM 53.1 °F 44.1 °F 71% 30.13 in 10.0 mi SE 3.5 mph - N/A   Clear
9:53 AM 61.0 °F 44.1 °F 54% 30.14 in 10.0 mi Calm Calm - N/A   Clear
10:53 AM 64.9 °F 46.0 °F 50% 30.13 in 10.0 mi Calm Calm - N/A   Clear
11:53 AM 70.0 °F 46.0 °F 42% 30.12 in 10.0 mi Calm Calm - N/A   Clear
12:53 PM 73.9 °F 45.0 °F 35% 30.09 in 10.0 mi Calm Calm - N/A   Clear
1:53 PM 75.9 °F 44.1 °F 32% 30.05 in 10.0 mi Variable 3.5 mph - N/A   Clear
2:53 PM 78.1 °F 45.0 °F 31% 30.02 in 10.0 mi ESE 4.6 mph - N/A   Clear
3:53 PM 79.0 °F 45.0 °F 30% 30.01 in 10.0 mi Calm Calm - N/A   Clear
4:53 PM 78.1 °F 46.0 °F 32% 30.00 in 10.0 mi NW 3.5 mph - N/A   Clear
5:53 PM 75.0 °F 46.9 °F 37% 29.99 in 10.0 mi Calm Calm - N/A   Clear
6:53 PM 69.1 °F 51.1 °F 53% 29.98 in 10.0 mi Calm Calm - N/A   Clear
7:53 PM 62.1 °F 51.1 °F 67% 29.99 in 10.0 mi ESE 3.5 mph - N/A   Clear
8:53 PM 62.1 °F 51.1 °F 67% 30.00 in 10.0 mi Calm Calm - N/A   Clear
9:53 PM 57.0 °F 51.1 °F 81% 30.00 in 10.0 mi SE 3.5 mph - N/A   Clear
10:53 PM 57.9 °F 50.0 °F 75% 30.00 in 10.0 mi Calm Calm - N/A   Clear
11:53 PM 55.0 °F 50.0 °F 83% 29.99 in 10.0 mi ESE 3.5 mph - N/A   Clear